This is the latest recevied weather packets stored in our database for station/object NO3U. If no packets are shown the sender has not sent any weather packets the latest 10 day(s).
| Time | Temp. | Humidity | Pressure | Rain* | Wind** | Luminosity | Snow |
|---|---|---|---|---|---|---|---|
| 1777651606 | 9.44° C | 84% | 1013.4 hPa | 0 mm | - | 309 W/m² | - |
| 1777651304 | 9.44° C | 83% | 1013.4 hPa | 0 mm | - | 290 W/m² | - |
| 1777651000 | 8.89° C | 84% | 1013.5 hPa | 0 mm | - | 135 W/m² | - |
| 1777650697 | 8.89° C | 82% | 1013.4 hPa | 0 mm | - | 102 W/m² | - |
| 1777650394 | 8.89° C | 82% | 1013.5 hPa | 0 mm | - | 92 W/m² | - |
| 1777650091 | 9.44° C | 82% | 1013.6 hPa | 0 mm | - | 90 W/m² | - |
| 1777649789 | 9.44° C | 81% | 1013.8 hPa | 0 mm | - | 91 W/m² | - |
| 1777649486 | 9.44° C | 81% | 1013.7 hPa | 0 mm | - | 108 W/m² | - |
| 1777649182 | 9.44° C | 81% | 1013.6 hPa | 0 mm | - | 108 W/m² | - |
| 1777648879 | 8.89° C | 81% | 1013.6 hPa | 0 mm | - | 122 W/m² | - |
| 1777648273 | 8.89° C | 83% | 1013.7 hPa | 0 mm | - | 142 W/m² | - |
| 1777647969 | 8.89° C | 83% | 1013.7 hPa | 0 mm | - | 112 W/m² | - |
| 1777647665 | 8.89° C | 83% | 1013.7 hPa | 0 mm | - | 84 W/m² | - |
| 1777647361 | 8.89° C | 81% | 1013.6 hPa | 0 mm | - | 42 W/m² | - |
| 1777647060 | 8.89° C | 84% | 1013.5 hPa | 0 mm | - | 69 W/m² | - |
| 1777646755 | 8.89° C | 84% | 1013.6 hPa | 0 mm | - | 152 W/m² | - |
| 1777646450 | 8.89° C | 83% | 1013.6 hPa | 0 mm | - | 162 W/m² | - |
| 1777646147 | 8.89° C | 85% | 1013.4 hPa | 0 mm | - | 184 W/m² | - |
| 1777645844 | 8.89° C | 83% | 1013.5 hPa | 0 mm | - | 147 W/m² | - |
| 1777645541 | 8.89° C | 85% | 1013.5 hPa | 0 mm | - | 114 W/m² | - |
| 1777645237 | 8.89° C | 83% | 1013.6 hPa | 0 mm | - | 145 W/m² | - |
| 1777644933 | 8.89° C | 84% | 1013.4 hPa | 0 mm | - | 297 W/m² | - |
| 1777644631 | 8.33° C | 86% | 1013.3 hPa | 0 mm | - | 221 W/m² | - |
| 1777644327 | 7.78° C | 86% | 1013.2 hPa | 0 mm | - | 155 W/m² | - |
| 1777644023 | 7.78° C | 88% | 1013.4 hPa | 0 mm | - | 122 W/m² | - |
* Rain latest hour (hover to see other rain measurements)
** Current wind speed in m/s (hover to see current wind gust speed)